contact:dominique.lefevre@mio.osupytheas.fr, maurice.libes@osupytheas.fr, didier.mallarino@osupytheas.fr
Project:EMSO http://www.emso-fr.org/EMSO-France
Depth: 2436.0 m
Title:EMSO Ligure Ouest : Data MII capteur MICROCAT
DateTime_Computer,Latitude,Longitude,Temperature,Conductivity,Pressure,DateTime_Instrument
DateTime_Computer,Latitude,Longitude,degC,S m-1,dbar,DateTime_Instrument
2019-06-12T00:02:46Z,42.805,6.029,13.2952,4.59954,2469.867,2019-6-12T02:03:02Z
2019-06-12T00:05:49Z,42.805,6.029,13.2952,4.59953,2469.844,2019-6-12T02:06:05Z
2019-06-12T00:08:52Z,42.805,6.029,13.2958,4.59952,2469.83,2019-6-12T02:09:08Z
2019-06-12T00:11:55Z,42.805,6.029,13.2957,4.59952,2469.844,2019-6-12T02:12:11Z
2019-06-12T00:14:58Z,42.805,6.029,13.2952,4.59952,2469.844,2019-6-12T02:15:13Z
2019-06-12T00:18:01Z,42.805,6.029,13.2953,4.59953,2469.83,2019-6-12T02:18:16Z
2019-06-12T00:21:04Z,42.805,6.029,13.2953,4.59954,2469.821,2019-6-12T02:21:19Z
2019-06-12T00:24:06Z,42.805,6.029,13.2955,4.59954,2469.83,2019-6-12T02:24:22Z
2019-06-12T00:27:09Z,42.805,6.029,13.2955,4.59954,2469.83,2019-6-12T02:27:25Z
2019-06-12T00:30:12Z,42.805,6.029,13.2957,4.59952,2469.806,2019-6-12T02:30:28Z
2019-06-12T00:33:15Z,42.805,6.029,13.2952,4.59952,2469.844,2019-6-12T02:33:31Z
2019-06-12T00:36:18Z,42.805,6.029,13.2952,4.59955,2469.867,2019-6-12T02:36:34Z
2019-06-12T00:39:21Z,42.805,6.029,13.2955,4.59952,2469.806,2019-6-12T02:39:37Z
2019-06-12T00:42:24Z,42.805,6.029,13.2953,4.59952,2469.83,2019-6-12T02:42:40Z
2019-06-12T00:45:27Z,42.805,6.029,13.2954,4.59951,2469.83,2019-6-12T02:45:43Z
2019-06-12T00:48:30Z,42.805,6.029,13.2952,4.59953,2469.853,2019-6-12T02:48:46Z
2019-06-12T00:51:33Z,42.805,6.029,13.2953,4.59953,2469.853,2019-6-12T02:51:49Z
2019-06-12T00:54:36Z,42.805,6.029,13.2952,4.59952,2469.83,2019-6-12T02:54:52Z
2019-06-12T00:57:39Z,42.805,6.029,13.2952,4.59952,2469.853,2019-6-12T02:57:55Z
2019-06-12T01:00:42Z,42.805,6.029,13.2954,4.59952,2469.867,2019-6-12T03:00:58Z
2019-06-12T01:03:45Z,42.805,6.029,13.2956,4.59954,2469.83,2019-6-12T03:04:01Z
2019-06-12T01:06:48Z,42.805,6.029,13.2958,4.59953,2469.853,2019-6-12T03:07:04Z
2019-06-12T01:09:51Z,42.805,6.029,13.2953,4.59954,2469.853,2019-6-12T03:10:07Z
2019-06-12T01:12:54Z,42.805,6.029,13.2953,4.59953,2469.853,2019-6-12T03:13:10Z
2019-06-12T01:15:57Z,42.805,6.029,13.2951,4.59953,2469.867,2019-6-12T03:16:12Z
2019-06-12T01:19:00Z,42.805,6.029,13.2953,4.59953,2469.867,2019-6-12T03:19:15Z
2019-06-12T01:22:03Z,42.805,6.029,13.2950,4.59954,2469.876,2019-6-12T03:22:18Z
2019-06-12T01:25:05Z,42.805,6.029,13.2955,4.59953,2469.853,2019-6-12T03:25:21Z
2019-06-12T01:28:08Z,42.805,6.029,13.2958,4.59955,2469.867,2019-6-12T03:28:24Z
2019-06-12T01:31:11Z,42.805,6.029,13.2953,4.59953,2469.876,2019-6-12T03:31:27Z
2019-06-12T01:34:14Z,42.805,6.029,13.2953,4.59954,2469.867,2019-6-12T03:34:30Z
2019-06-12T01:37:17Z,42.805,6.029,13.2953,4.59953,2469.876,2019-6-12T03:37:33Z
2019-06-12T01:40:20Z,42.805,6.029,13.2952,4.59954,2469.89,2019-6-12T03:40:36Z
2019-06-12T01:43:23Z,42.805,6.029,13.2954,4.59953,2469.89,2019-6-12T03:43:39Z
2019-06-12T01:46:26Z,42.805,6.029,13.2955,4.59953,2469.89,2019-6-12T03:46:42Z
2019-06-12T01:49:29Z,42.805,6.029,13.2956,4.59954,2469.914,2019-6-12T03:49:45Z
2019-06-12T01:52:32Z,42.805,6.029,13.2957,4.59954,2469.876,2019-6-12T03:52:48Z
2019-06-12T01:55:35Z,42.805,6.029,13.2957,4.59953,2469.9,2019-6-12T03:55:51Z
2019-06-12T01:58:38Z,42.805,6.029,13.2952,4.59953,2469.876,2019-6-12T03:58:54Z
2019-06-12T02:01:41Z,42.805,6.029,13.2952,4.59953,2469.853,2019-6-12T04:01:57Z
2019-06-12T02:04:44Z,42.805,6.029,13.2952,4.59953,2469.89,2019-6-12T04:05:00Z
2019-06-12T02:07:47Z,42.805,6.029,13.2952,4.59954,2469.876,2019-6-12T04:08:03Z
2019-06-12T02:10:50Z,42.805,6.029,13.2956,4.59953,2469.876,2019-6-12T04:11:06Z
2019-06-12T02:13:53Z,42.805,6.029,13.2959,4.59953,2469.853,2019-6-12T04:14:08Z
2019-06-12T02:16:56Z,42.805,6.029,13.2957,4.59953,2469.89,2019-6-12T04:17:11Z
2019-06-12T02:19:58Z,42.805,6.029,13.2954,4.59954,2469.9,2019-6-12T04:20:14Z
2019-06-12T02:23:01Z,42.805,6.029,13.2957,4.59955,2469.923,2019-6-12T04:23:17Z
2019-06-12T02:26:04Z,42.805,6.029,13.2957,4.59953,2469.937,2019-6-12T04:26:20Z
2019-06-12T02:29:07Z,42.805,6.029,13.2953,4.59953,2469.9,2019-6-12T04:29:23Z
2019-06-12T02:32:10Z,42.805,6.029,13.2953,4.59953,2469.876,2019-6-12T04:32:26Z
2019-06-12T02:35:13Z,42.805,6.029,13.2953,4.59954,2469.876,2019-6-12T04:35:29Z
2019-06-12T02:38:16Z,42.805,6.029,13.2954,4.59953,2469.914,2019-6-12T04:38:32Z
2019-06-12T02:41:19Z,42.805,6.029,13.2954,4.59952,2469.89,2019-6-12T04:41:35Z
2019-06-12T02:44:22Z,42.805,6.029,13.2950,4.59952,2469.914,2019-6-12T04:44:38Z
2019-06-12T02:47:25Z,42.805,6.029,13.2953,4.59953,2469.9,2019-6-12T04:47:41Z
2019-06-12T02:50:28Z,42.805,6.029,13.2955,4.59954,2469.876,2019-6-12T04:50:44Z
2019-06-12T02:53:31Z,42.805,6.029,13.2958,4.59954,2469.876,2019-6-12T04:53:47Z
2019-06-12T02:56:34Z,42.805,6.029,13.2954,4.59952,2469.876,2019-6-12T04:56:50Z
2019-06-12T02:59:37Z,42.805,6.029,13.2957,4.59953,2469.9,2019-6-12T04:59:53Z
2019-06-12T03:02:40Z,42.805,6.029,13.2954,4.59952,2469.9,2019-6-12T05:02:56Z
2019-06-12T03:05:43Z,42.805,6.029,13.2955,4.59953,2469.9,2019-6-12T05:05:59Z
2019-06-12T03:08:46Z,42.805,6.029,13.2956,4.59953,2469.89,2019-6-12T05:09:02Z
2019-06-12T03:11:49Z,42.805,6.029,13.2953,4.59953,2469.876,2019-6-12T05:12:04Z
2019-06-12T03:14:52Z,42.805,6.029,13.2952,4.59954,2469.89,2019-6-12T05:15:07Z
2019-06-12T03:17:55Z,42.805,6.029,13.2957,4.59953,2469.9,2019-6-12T05:18:10Z
2019-06-12T03:20:57Z,42.805,6.029,13.2952,4.59953,2469.876,2019-6-12T05:21:13Z
2019-06-12T03:24:00Z,42.805,6.029,13.2955,4.59954,2469.89,2019-6-12T05:24:16Z
2019-06-12T03:27:03Z,42.805,6.029,13.2957,4.59953,2469.89,2019-6-12T05:27:19Z
2019-06-12T03:30:06Z,42.805,6.029,13.2954,4.59954,2469.914,2019-6-12T05:30:22Z
2019-06-12T03:33:09Z,42.805,6.029,13.2955,4.59954,2469.89,2019-6-12T05:33:25Z
2019-06-12T03:36:12Z,42.805,6.029,13.2952,4.59953,2469.876,2019-6-12T05:36:28Z
2019-06-12T03:39:15Z,42.805,6.029,13.2956,4.59953,2469.914,2019-6-12T05:39:31Z
2019-06-12T03:42:18Z,42.805,6.029,13.2952,4.59953,2469.9,2019-6-12T05:42:34Z
2019-06-12T03:45:21Z,42.805,6.029,13.2954,4.59953,2469.853,2019-6-12T05:45:37Z
2019-06-12T03:48:24Z,42.805,6.029,13.2956,4.59953,2469.914,2019-6-12T05:48:40Z
2019-06-12T03:51:27Z,42.805,6.029,13.2957,4.59953,2469.853,2019-6-12T05:51:43Z
2019-06-12T03:54:30Z,42.805,6.029,13.2954,4.59954,2469.867,2019-6-12T05:54:46Z
2019-06-12T03:57:33Z,42.805,6.029,13.2955,4.59953,2469.876,2019-6-12T05:57:49Z
2019-06-12T04:00:36Z,42.805,6.029,13.2955,4.59954,2469.876,2019-6-12T06:00:52Z
2019-06-12T04:03:39Z,42.805,6.029,13.2954,4.59954,2469.9,2019-6-12T06:03:55Z
2019-06-12T04:06:42Z,42.805,6.029,13.2957,4.59952,2469.89,2019-6-12T06:06:58Z
2019-06-12T04:09:45Z,42.805,6.029,13.2954,4.59952,2469.853,2019-6-12T06:10:01Z
2019-06-12T04:12:48Z,42.805,6.029,13.2957,4.59954,2469.914,2019-6-12T06:13:03Z
2019-06-12T04:15:51Z,42.805,6.029,13.2955,4.59954,2469.876,2019-6-12T06:16:06Z
2019-06-12T04:18:53Z,42.805,6.029,13.2952,4.59954,2469.867,2019-6-12T06:19:09Z
2019-06-12T04:21:56Z,42.805,6.029,13.2952,4.59953,2469.9,2019-6-12T06:22:12Z
2019-06-12T04:24:59Z,42.805,6.029,13.2953,4.59955,2469.89,2019-6-12T06:25:15Z
2019-06-12T04:28:02Z,42.805,6.029,13.2957,4.59953,2469.876,2019-6-12T06:28:18Z
2019-06-12T04:31:05Z,42.805,6.029,13.2957,4.59953,2469.89,2019-6-12T06:31:21Z
2019-06-12T04:34:08Z,42.805,6.029,13.2954,4.59954,2469.89,2019-6-12T06:34:24Z
2019-06-12T04:37:11Z,42.805,6.029,13.2957,4.59954,2469.876,2019-6-12T06:37:27Z
2019-06-12T04:40:14Z,42.805,6.029,13.2955,4.59953,2469.89,2019-6-12T06:40:30Z
2019-06-12T04:43:17Z,42.805,6.029,13.2957,4.59953,2469.89,2019-6-12T06:43:33Z
2019-06-12T04:46:20Z,42.805,6.029,13.2954,4.59952,2469.867,2019-6-12T06:46:36Z
2019-06-12T04:49:23Z,42.805,6.029,13.2953,4.59954,2469.853,2019-6-12T06:49:39Z
2019-06-12T04:52:26Z,42.805,6.029,13.2957,4.59954,2469.9,2019-6-12T06:52:42Z
2019-06-12T04:55:29Z,42.805,6.029,13.2954,4.59952,2469.867,2019-6-12T06:55:45Z
2019-06-12T04:58:32Z,42.805,6.029,13.2953,4.59952,2469.876,2019-6-12T06:58:48Z
2019-06-12T05:01:35Z,42.805,6.029,13.2958,4.59953,2469.867,2019-6-12T07:01:51Z
2019-06-12T05:04:38Z,42.805,6.029,13.2952,4.59953,2469.867,2019-6-12T07:04:54Z
2019-06-12T05:07:41Z,42.805,6.029,13.2955,4.59952,2469.876,2019-6-12T07:07:57Z
2019-06-12T05:10:44Z,42.805,6.029,13.2957,4.59953,2469.853,2019-6-12T07:10:59Z
2019-06-12T05:13:47Z,42.805,6.029,13.2954,4.59952,2469.867,2019-6-12T07:14:02Z
2019-06-12T05:16:50Z,42.805,6.029,13.2957,4.59954,2469.83,2019-6-12T07:17:05Z
2019-06-12T05:19:52Z,42.805,6.029,13.2955,4.59952,2469.876,2019-6-12T07:20:08Z
2019-06-12T05:22:55Z,42.805,6.029,13.2954,4.59952,2469.853,2019-6-12T07:23:11Z
2019-06-12T05:25:58Z,42.805,6.029,13.2953,4.59953,2469.89,2019-6-12T07:26:14Z
2019-06-12T05:29:01Z,42.805,6.029,13.2961,4.59951,2469.853,2019-6-12T07:29:17Z
2019-06-12T05:32:04Z,42.805,6.029,13.2958,4.59953,2469.853,2019-6-12T07:32:20Z
2019-06-12T05:35:07Z,42.805,6.029,13.2954,4.59952,2469.853,2019-6-12T07:35:23Z
2019-06-12T05:38:10Z,42.805,6.029,13.2955,4.59952,2469.853,2019-6-12T07:38:26Z
2019-06-12T05:41:13Z,42.805,6.029,13.2953,4.59952,2469.83,2019-6-12T07:41:29Z
2019-06-12T05:44:16Z,42.805,6.029,13.2956,4.59953,2469.853,2019-6-12T07:44:32Z
2019-06-12T05:47:19Z,42.805,6.029,13.2954,4.59952,2469.844,2019-6-12T07:47:35Z
2019-06-12T05:50:22Z,42.805,6.029,13.2951,4.59952,2469.783,2019-6-12T07:50:38Z
2019-06-12T05:53:25Z,42.805,6.029,13.2954,4.59951,2469.853,2019-6-12T07:53:41Z
2019-06-12T05:56:28Z,42.805,6.029,13.2955,4.59952,2469.816,2019-6-12T07:56:44Z
2019-06-12T05:59:31Z,42.805,6.029,13.2957,4.59952,2469.844,2019-6-12T07:59:47Z
2019-06-12T06:02:34Z,42.805,6.029,13.2952,4.59951,2469.797,2019-6-12T08:02:50Z
2019-06-12T06:05:37Z,42.805,6.029,13.2955,4.59952,2469.83,2019-6-12T08:05:53Z
2019-06-12T06:08:40Z,42.805,6.029,13.2955,4.59952,2469.821,2019-6-12T08:08:56Z
2019-06-12T06:11:43Z,42.805,6.029,13.2954,4.59952,2469.83,2019-6-12T08:11:58Z
2019-06-12T06:14:46Z,42.805,6.029,13.2954,4.59952,2469.806,2019-6-12T08:15:01Z
2019-06-12T06:17:49Z,42.805,6.029,13.2956,4.59952,2469.821,2019-6-12T08:18:04Z
2019-06-12T06:20:51Z,42.805,6.029,13.2952,4.59951,2469.83,2019-6-12T08:21:07Z
2019-06-12T06:23:54Z,42.805,6.029,13.2953,4.59953,2469.821,2019-6-12T08:24:10Z
2019-06-12T06:26:57Z,42.805,6.029,13.2950,4.59951,2469.806,2019-6-12T08:27:13Z
2019-06-12T06:30:00Z,42.805,6.029,13.2954,4.59953,2469.821,2019-6-12T08:30:16Z
2019-06-12T06:33:03Z,42.805,6.029,13.2952,4.59953,2469.83,2019-6-12T08:33:19Z
2019-06-12T06:36:06Z,42.805,6.029,13.2956,4.59952,2469.783,2019-6-12T08:36:22Z
2019-06-12T06:39:09Z,42.805,6.029,13.2954,4.59954,2469.797,2019-6-12T08:39:25Z
2019-06-12T06:42:12Z,42.805,6.029,13.2954,4.59952,2469.783,2019-6-12T08:42:28Z
2019-06-12T06:45:15Z,42.805,6.029,13.2953,4.59954,2469.806,2019-6-12T08:45:31Z
2019-06-12T06:48:18Z,42.805,6.029,13.2956,4.59954,2469.806,2019-6-12T08:48:34Z
2019-06-12T06:51:21Z,42.805,6.029,13.2954,4.59951,2469.797,2019-6-12T08:51:37Z
2019-06-12T06:54:24Z,42.805,6.029,13.2957,4.59952,2469.76,2019-6-12T08:54:40Z
2019-06-12T06:57:27Z,42.805,6.029,13.2955,4.59952,2469.76,2019-6-12T08:57:43Z
2019-06-12T07:00:30Z,42.805,6.029,13.2952,4.59953,2469.797,2019-6-12T09:00:46Z
2019-06-12T07:03:33Z,42.805,6.029,13.2953,4.59951,2469.75,2019-6-12T09:03:49Z
2019-06-12T07:06:36Z,42.805,6.029,13.2956,4.59951,2469.797,2019-6-12T09:06:52Z
2019-06-12T07:09:39Z,42.805,6.029,13.2952,4.59953,2469.773,2019-6-12T09:09:55Z
2019-06-12T07:12:42Z,42.805,6.029,13.2954,4.59951,2469.773,2019-6-12T09:12:57Z
2019-06-12T07:15:45Z,42.805,6.029,13.2955,4.59953,2469.76,2019-6-12T09:16:00Z
2019-06-12T07:18:47Z,42.805,6.029,13.2957,4.59952,2469.76,2019-6-12T09:19:03Z
2019-06-12T07:21:50Z,42.805,6.029,13.2953,4.59951,2469.783,2019-6-12T09:22:06Z
2019-06-12T07:24:53Z,42.805,6.029,13.2953,4.59954,2469.76,2019-6-12T09:25:09Z
2019-06-12T07:27:56Z,42.805,6.029,13.2953,4.59951,2469.76,2019-6-12T09:28:12Z
2019-06-12T07:30:59Z,42.805,6.029,13.2952,4.59951,2469.783,2019-6-12T09:31:15Z
2019-06-12T07:34:02Z,42.805,6.029,13.2957,4.59952,2469.737,2019-6-12T09:34:18Z
2019-06-12T07:37:05Z,42.805,6.029,13.2952,4.59951,2469.76,2019-6-12T09:37:21Z
2019-06-12T07:40:08Z,42.805,6.029,13.2950,4.59953,2469.797,2019-6-12T09:40:24Z
2019-06-12T07:43:11Z,42.805,6.029,13.2954,4.59952,2469.713,2019-6-12T09:43:27Z
2019-06-12T07:46:14Z,42.805,6.029,13.2952,4.59952,2469.773,2019-6-12T09:46:30Z
2019-06-12T07:49:17Z,42.805,6.029,13.2953,4.59952,2469.737,2019-6-12T09:49:33Z
2019-06-12T07:52:20Z,42.805,6.029,13.2955,4.59951,2469.773,2019-6-12T09:52:36Z
2019-06-12T07:55:23Z,42.805,6.029,13.2952,4.59951,2469.76,2019-6-12T09:55:39Z
2019-06-12T07:58:26Z,42.805,6.029,13.2956,4.59951,2469.737,2019-6-12T09:58:42Z
2019-06-12T08:01:29Z,42.805,6.029,13.2950,4.59951,2469.773,2019-6-12T10:01:45Z
2019-06-12T08:04:32Z,42.805,6.029,13.2953,4.59954,2469.737,2019-6-12T10:04:48Z
2019-06-12T08:07:35Z,42.805,6.029,13.2952,4.59952,2469.76,2019-6-12T10:07:51Z
2019-06-12T08:10:38Z,42.805,6.029,13.2954,4.59951,2469.737,2019-6-12T10:10:53Z
2019-06-12T08:13:41Z,42.805,6.029,13.2950,4.59952,2469.75,2019-6-12T10:13:56Z
2019-06-12T08:16:44Z,42.805,6.029,13.2950,4.59951,2469.773,2019-6-12T10:16:59Z
2019-06-12T08:19:46Z,42.805,6.029,13.2952,4.59951,2469.76,2019-6-12T10:20:02Z
2019-06-12T08:22:49Z,42.805,6.029,13.2953,4.59951,2469.727,2019-6-12T10:23:05Z
2019-06-12T08:25:52Z,42.805,6.029,13.2953,4.59951,2469.75,2019-6-12T10:26:08Z
2019-06-12T08:28:55Z,42.805,6.029,13.2953,4.59951,2469.713,2019-6-12T10:29:11Z
2019-06-12T08:31:58Z,42.805,6.029,13.2952,4.59953,2469.737,2019-6-12T10:32:14Z
2019-06-12T08:35:01Z,42.805,6.029,13.2956,4.59951,2469.75,2019-6-12T10:35:17Z
2019-06-12T08:38:04Z,42.805,6.029,13.2952,4.59951,2469.713,2019-6-12T10:38:20Z
2019-06-12T08:41:07Z,42.805,6.029,13.2949,4.59951,2469.713,2019-6-12T10:41:23Z
2019-06-12T08:44:10Z,42.805,6.029,13.2951,4.59951,2469.713,2019-6-12T10:44:26Z
2019-06-12T08:47:13Z,42.805,6.029,13.2954,4.59951,2469.727,2019-6-12T10:47:29Z
2019-06-12T08:50:16Z,42.805,6.029,13.2954,4.59952,2469.75,2019-6-12T10:50:32Z
2019-06-12T08:53:19Z,42.805,6.029,13.2955,4.59956,2469.713,2019-6-12T10:53:35Z
2019-06-12T08:56:22Z,42.805,6.029,13.2952,4.59952,2469.713,2019-6-12T10:56:38Z
2019-06-12T08:59:25Z,42.805,6.029,13.2951,4.59952,2469.713,2019-6-12T10:59:41Z
2019-06-12T09:02:28Z,42.805,6.029,13.2953,4.59951,2469.713,2019-6-12T11:02:44Z
2019-06-12T09:05:31Z,42.805,6.029,13.2952,4.59953,2469.704,2019-6-12T11:05:47Z
2019-06-12T09:08:34Z,42.805,6.029,13.2952,4.59952,2469.704,2019-6-12T11:08:50Z
2019-06-12T09:11:37Z,42.805,6.029,13.2952,4.59951,2469.69,2019-6-12T11:11:53Z
2019-06-12T09:14:40Z,42.805,6.029,13.2951,4.59952,2469.727,2019-6-12T11:14:55Z
2019-06-12T09:17:43Z,42.805,6.029,13.2952,4.59951,2469.69,2019-6-12T11:17:58Z
2019-06-12T09:20:46Z,42.805,6.029,13.2955,4.59951,2469.704,2019-6-12T11:21:01Z
2019-06-12T09:23:48Z,42.805,6.029,13.2953,4.59951,2469.69,2019-6-12T11:24:04Z
2019-06-12T09:26:51Z,42.805,6.029,13.2952,4.59952,2469.713,2019-6-12T11:27:07Z
2019-06-12T09:29:54Z,42.805,6.029,13.2952,4.59952,2469.69,2019-6-12T11:30:10Z
2019-06-12T09:32:57Z,42.805,6.029,13.2955,4.59953,2469.727,2019-6-12T11:33:13Z
2019-06-12T09:36:00Z,42.805,6.029,13.2951,4.59951,2469.727,2019-6-12T11:36:16Z
2019-06-12T09:39:03Z,42.805,6.029,13.2952,4.59951,2469.727,2019-6-12T11:39:19Z
2019-06-12T09:42:06Z,42.805,6.029,13.2957,4.59951,2469.727,2019-6-12T11:42:22Z
2019-06-12T09:45:09Z,42.805,6.029,13.2953,4.59951,2469.727,2019-6-12T11:45:25Z
2019-06-12T09:48:12Z,42.805,6.029,13.2952,4.59952,2469.667,2019-6-12T11:48:28Z
2019-06-12T09:51:15Z,42.805,6.029,13.2952,4.59951,2469.667,2019-6-12T11:51:31Z
2019-06-12T09:54:18Z,42.805,6.029,13.2953,4.59951,2469.713,2019-6-12T11:54:34Z
2019-06-12T09:57:21Z,42.805,6.029,13.2953,4.59951,2469.69,2019-6-12T11:57:37Z
2019-06-12T10:00:24Z,42.805,6.029,13.2954,4.59952,2469.68,2019-6-12T12:00:40Z
2019-06-12T10:03:27Z,42.805,6.029,13.2953,4.59950,2469.69,2019-6-12T12:03:43Z
2019-06-12T10:06:30Z,42.805,6.029,13.2953,4.59952,2469.704,2019-6-12T12:06:46Z
2019-06-12T10:09:33Z,42.805,6.029,13.2955,4.59952,2469.713,2019-6-12T12:09:49Z
2019-06-12T10:12:36Z,42.805,6.029,13.2955,4.59951,2469.69,2019-6-12T12:12:52Z
2019-06-12T10:15:39Z,42.805,6.029,13.2949,4.59952,2469.737,2019-6-12T12:15:55Z
2019-06-12T10:18:42Z,42.805,6.029,13.2953,4.59951,2469.69,2019-6-12T12:18:58Z
2019-06-12T10:21:45Z,42.805,6.029,13.2949,4.59951,2469.69,2019-6-12T12:22:00Z
2019-06-12T10:24:48Z,42.805,6.029,13.2953,4.59952,2469.69,2019-6-12T12:25:03Z
2019-06-12T10:27:50Z,42.805,6.029,13.2957,4.59952,2469.713,2019-6-12T12:28:06Z
2019-06-12T10:30:53Z,42.805,6.029,13.2951,4.59951,2469.667,2019-6-12T12:31:09Z
2019-06-12T10:33:56Z,42.805,6.029,13.2950,4.59953,2469.704,2019-6-12T12:34:12Z
2019-06-12T10:36:59Z,42.805,6.029,13.2955,4.59953,2469.657,2019-6-12T12:37:15Z
2019-06-12T10:40:02Z,42.805,6.029,13.2953,4.59951,2469.68,2019-6-12T12:40:18Z
2019-06-12T10:43:05Z,42.805,6.029,13.2955,4.59951,2469.727,2019-6-12T12:43:21Z
2019-06-12T10:46:08Z,42.805,6.029,13.2956,4.59951,2469.68,2019-6-12T12:46:24Z
2019-06-12T10:49:11Z,42.805,6.029,13.2953,4.59951,2469.727,2019-6-12T12:49:27Z
2019-06-12T10:52:14Z,42.805,6.029,13.2956,4.59952,2469.704,2019-6-12T12:52:30Z
2019-06-12T10:55:17Z,42.805,6.029,13.2954,4.59951,2469.68,2019-6-12T12:55:33Z
2019-06-12T10:58:20Z,42.805,6.029,13.2953,4.59951,2469.667,2019-6-12T12:58:36Z
2019-06-12T11:01:23Z,42.805,6.029,13.2952,4.59951,2469.704,2019-6-12T13:01:39Z
2019-06-12T11:04:26Z,42.805,6.029,13.2952,4.59952,2469.704,2019-6-12T13:04:42Z
2019-06-12T11:07:29Z,42.805,6.029,13.2954,4.59951,2469.667,2019-6-12T13:07:45Z
2019-06-12T11:10:32Z,42.805,6.029,13.2953,4.59951,2469.704,2019-6-12T13:10:48Z
2019-06-12T11:13:35Z,42.805,6.029,13.2955,4.59951,2469.69,2019-6-12T13:13:51Z
2019-06-12T11:16:38Z,42.805,6.029,13.2952,4.59951,2469.75,2019-6-12T13:16:54Z
2019-06-12T11:19:41Z,42.805,6.029,13.2958,4.59951,2469.713,2019-6-12T13:19:57Z
2019-06-12T11:22:44Z,42.805,6.029,13.2952,4.59951,2469.704,2019-6-12T13:23:00Z
2019-06-12T11:25:47Z,42.805,6.029,13.2951,4.59951,2469.704,2019-6-12T13:26:02Z
2019-06-12T11:28:50Z,42.805,6.029,13.2953,4.59951,2469.723,2019-6-12T13:29:05Z
2019-06-12T11:31:53Z,42.805,6.029,13.2953,4.59952,2469.704,2019-6-12T13:32:08Z
2019-06-12T11:34:55Z,42.805,6.029,13.2951,4.59951,2469.713,2019-6-12T13:35:11Z
2019-06-12T11:37:58Z,42.805,6.029,13.2956,4.59951,2469.69,2019-6-12T13:38:14Z
2019-06-12T11:41:01Z,42.805,6.029,13.2955,4.59951,2469.69,2019-6-12T13:41:17Z
2019-06-12T11:44:04Z,42.805,6.029,13.2954,4.59951,2469.704,2019-6-12T13:44:20Z
2019-06-12T11:47:07Z,42.805,6.029,13.2953,4.59952,2469.713,2019-6-12T13:47:23Z
2019-06-12T11:50:10Z,42.805,6.029,13.2952,4.59952,2469.69,2019-6-12T13:50:26Z
2019-06-12T11:53:13Z,42.805,6.029,13.2951,4.59952,2469.727,2019-6-12T13:53:29Z
2019-06-12T11:56:16Z,42.805,6.029,13.2953,4.59952,2469.727,2019-6-12T13:56:32Z
2019-06-12T11:59:19Z,42.805,6.029,13.2953,4.59951,2469.69,2019-6-12T13:59:35Z
2019-06-12T12:02:22Z,42.805,6.029,13.2953,4.59950,2469.704,2019-6-12T14:02:38Z
2019-06-12T12:05:25Z,42.805,6.029,13.2953,4.59950,2469.727,2019-6-12T14:05:41Z
2019-06-12T12:08:28Z,42.805,6.029,13.2957,4.59952,2469.713,2019-6-12T14:08:44Z
2019-06-12T12:11:31Z,42.805,6.029,13.2954,4.59952,2469.727,2019-6-12T14:11:47Z
2019-06-12T12:14:34Z,42.805,6.029,13.2952,4.59953,2469.737,2019-6-12T14:14:50Z
2019-06-12T12:17:37Z,42.805,6.029,13.2952,4.59951,2469.727,2019-6-12T14:17:53Z
2019-06-12T12:20:40Z,42.805,6.029,13.2954,4.59950,2469.727,2019-6-12T14:20:56Z
2019-06-12T12:23:43Z,42.805,6.029,13.2957,4.59952,2469.713,2019-6-12T14:23:59Z
2019-06-12T12:26:46Z,42.805,6.029,13.2952,4.59952,2469.704,2019-6-12T14:27:02Z
2019-06-12T12:29:49Z,42.805,6.029,13.2952,4.59952,2469.727,2019-6-12T14:30:05Z
2019-06-12T12:32:52Z,42.805,6.029,13.2948,4.59953,2469.75,2019-6-12T14:33:07Z
2019-06-12T12:35:55Z,42.805,6.029,13.2953,4.59951,2469.713,2019-6-12T14:36:10Z
2019-06-12T12:38:58Z,42.805,6.029,13.2953,4.59951,2469.713,2019-6-12T14:39:13Z
2019-06-12T12:42:00Z,42.805,6.029,13.2952,4.59951,2469.737,2019-6-12T14:42:16Z
2019-06-12T12:45:03Z,42.805,6.029,13.2953,4.59951,2469.713,2019-6-12T14:45:19Z
2019-06-12T12:48:06Z,42.805,6.029,13.2953,4.59951,2469.75,2019-6-12T14:48:22Z
2019-06-12T12:51:09Z,42.805,6.029,13.2952,4.59951,2469.737,2019-6-12T14:51:25Z
2019-06-12T12:54:12Z,42.805,6.029,13.2955,4.59951,2469.713,2019-6-12T14:54:28Z
2019-06-12T12:57:15Z,42.805,6.029,13.2952,4.59952,2469.76,2019-6-12T14:57:31Z
2019-06-12T13:00:18Z,42.805,6.029,13.2955,4.59951,2469.737,2019-6-12T15:00:34Z
2019-06-12T13:03:21Z,42.805,6.029,13.2953,4.59952,2469.773,2019-6-12T15:03:37Z
2019-06-12T13:06:24Z,42.805,6.029,13.2952,4.59952,2469.797,2019-6-12T15:06:40Z
2019-06-12T13:09:27Z,42.805,6.029,13.2953,4.59951,2469.76,2019-6-12T15:09:43Z
2019-06-12T13:12:30Z,42.805,6.029,13.2951,4.59952,2469.737,2019-6-12T15:12:46Z
2019-06-12T13:15:33Z,42.805,6.029,13.2956,4.59951,2469.76,2019-6-12T15:15:49Z
2019-06-12T13:18:36Z,42.805,6.029,13.2951,4.59951,2469.75,2019-6-12T15:18:52Z
2019-06-12T13:21:39Z,42.805,6.029,13.2952,4.59951,2469.737,2019-6-12T15:21:55Z
2019-06-12T13:24:42Z,42.805,6.029,13.2954,4.59952,2469.797,2019-6-12T15:24:58Z
2019-06-12T13:27:45Z,42.805,6.029,13.2955,4.59952,2469.797,2019-6-12T15:28:01Z
2019-06-12T13:30:48Z,42.805,6.029,13.2955,4.59951,2469.737,2019-6-12T15:31:04Z
2019-06-12T13:33:51Z,42.805,6.029,13.2953,4.59951,2469.783,2019-6-12T15:34:07Z
2019-06-12T13:36:54Z,42.805,6.029,13.2953,4.59953,2469.76,2019-6-12T15:37:10Z
2019-06-12T13:39:57Z,42.805,6.029,13.2953,4.59952,2469.783,2019-6-12T15:40:12Z
2019-06-12T13:43:00Z,42.805,6.029,13.2956,4.59951,2469.783,2019-6-12T15:43:15Z
2019-06-12T13:46:02Z,42.805,6.029,13.2955,4.59953,2469.76,2019-6-12T15:46:18Z
2019-06-12T13:49:05Z,42.805,6.029,13.2956,4.59952,2469.773,2019-6-12T15:49:21Z
2019-06-12T13:52:08Z,42.805,6.029,13.2957,4.59952,2469.76,2019-6-12T15:52:24Z
2019-06-12T13:55:11Z,42.805,6.029,13.2953,4.59952,2469.773,2019-6-12T15:55:27Z
2019-06-12T13:58:14Z,42.805,6.029,13.2957,4.59951,2469.783,2019-6-12T15:58:30Z
2019-06-12T14:01:17Z,42.805,6.029,13.2956,4.59953,2469.797,2019-6-12T16:01:33Z
2019-06-12T14:04:20Z,42.805,6.029,13.2952,4.59952,2469.797,2019-6-12T16:04:36Z
2019-06-12T14:07:23Z,42.805,6.029,13.2955,4.59952,2469.76,2019-6-12T16:07:39Z
2019-06-12T14:10:26Z,42.805,6.029,13.2956,4.59954,2469.83,2019-6-12T16:10:42Z
2019-06-12T14:13:29Z,42.805,6.029,13.2951,4.59952,2469.797,2019-6-12T16:13:45Z
2019-06-12T14:16:32Z,42.805,6.029,13.2955,4.59954,2469.806,2019-6-12T16:16:48Z
2019-06-12T14:19:35Z,42.805,6.029,13.2955,4.59951,2469.797,2019-6-12T16:19:51Z
2019-06-12T14:22:38Z,42.805,6.029,13.2956,4.59951,2469.806,2019-6-12T16:22:54Z
2019-06-12T14:25:41Z,42.805,6.029,13.2950,4.59951,2469.821,2019-6-12T16:25:57Z
2019-06-12T14:28:44Z,42.805,6.029,13.2955,4.59952,2469.783,2019-6-12T16:29:00Z
2019-06-12T14:31:47Z,42.805,6.029,13.2952,4.59952,2469.797,2019-6-12T16:32:03Z
2019-06-12T14:34:50Z,42.805,6.029,13.2953,4.59952,2469.783,2019-6-12T16:35:06Z
2019-06-12T14:37:53Z,42.805,6.029,13.2952,4.59951,2469.806,2019-6-12T16:38:09Z
2019-06-12T14:40:56Z,42.805,6.029,13.2953,4.59953,2469.806,2019-6-12T16:41:12Z
2019-06-12T14:43:59Z,42.805,6.029,13.2954,4.59953,2469.797,2019-6-12T16:44:14Z
2019-06-12T14:47:02Z,42.805,6.029,13.2952,4.59951,2469.806,2019-6-12T16:47:17Z
2019-06-12T14:50:04Z,42.805,6.029,13.2946,4.59952,2469.783,2019-6-12T16:50:20Z
2019-06-12T14:53:07Z,42.805,6.029,13.2951,4.59951,2469.821,2019-6-12T16:53:23Z
2019-06-12T14:56:10Z,42.805,6.029,13.2952,4.59951,2469.797,2019-6-12T16:56:26Z
2019-06-12T14:59:13Z,42.805,6.029,13.2953,4.59951,2469.797,2019-6-12T16:59:29Z
2019-06-12T15:02:16Z,42.805,6.029,13.2951,4.59951,2469.821,2019-6-12T17:02:32Z
2019-06-12T15:05:19Z,42.805,6.029,13.2951,4.59951,2469.806,2019-6-12T17:05:35Z
2019-06-12T15:08:22Z,42.805,6.029,13.2948,4.59950,2469.797,2019-6-12T17:08:38Z
2019-06-12T15:11:25Z,42.805,6.029,13.2952,4.59951,2469.83,2019-6-12T17:11:41Z
2019-06-12T15:14:28Z,42.805,6.029,13.2951,4.59951,2469.806,2019-6-12T17:14:44Z